#timestamp,LO_Frequency,Hit,StdDev 
1512316815.3,286046996.5,N
1512316835.1,286046997.0,N
1512316836.0,286046997.0,N
1512316855.8,286046997.5,N
1512316875.7,286046993.5,N
1512316895.5,286046995.7,N
1512316915.3,286046992.2,N
1512316935.2,286046994.5,N
1512316955.9,286046994.0,N
1512316975.7,286046997.1,N
1512316995.5,286046998.5,N
1512317015.4,286046998.6,N
1512317035.2,286046998.9,N
1512317055.0,286046999.6,N
1512317055.9,286046999.6,N
1512317075.8,286046998.4,N
1512317095.6,286046999.8,N
1512317115.4,286047004.2,N
1512317135.3,286047005.9,N
1512317155.1,286047004.9,N
1512317156.0,286047004.9,N
1512317175.8,286047007.5,N
1512317195.7,286047008.6,N
1512317215.5,286047007.0,N
1512317235.3,286047006.7,N
1512317255.2,286047010.5,N
1512317275.9,286047012.1,N
1512317295.7,286047010.6,N
1512317315.5,286047009.7,N
1512317335.4,286047011.0,N
1512317355.2,286047012.2,N
1512317375.0,286047010.2,N
1512317375.9,286047010.2,N
1512317395.8,286047011.9,N
1512317415.6,286047009.5,N
1512317435.4,286047013.0,N
1512317455.3,286047015.4,N
1512317475.1,286047017.1,N
1512317495.8,286047015.8,N
1512317515.7,286047014.6,N
1512317535.5,286047015.4,N
1512317555.3,286047015.5,N
1512317575.2,286047015.2,N
1512317595.9,286047015.0,N
1512317615.7,286047013.3,N
1512317635.6,286047015.6,Y
1512317655.4,286047009.2,P
1512317675.2,286047008.3,P
1512317695.1,286047008.0,P
1512317696.0,286047008.0,Y
1512317715.8,286047001.1,P
1512317735.6,286046999.3,N
1512317755.5,286046995.7,N
1512317775.3,286046996.3,N
1512317795.1,286046993.0,N
1512317815.9,286046992.3,N
1512317835.7,286046991.0,N
1512317855.5,286046988.6,N
1512317875.3,286046991.2,N
1512317895.2,286046991.6,N
1512317915.0,286046990.4,N
1512317915.9,286046990.4,N
1512317935.7,286046990.4,N
1512317955.6,286046991.6,N
1512317975.4,286046985.4,N
1512317995.2,286046987.8,N
1512318015.1,286046989.5,N
1512318016.0,286046989.5,N
1512318035.8,286046985.9,N
1512318055.6,286046986.7,N
1512318075.5,286046983.6,Y
1512318095.3,286046991.0,P
1512318115.1,286046987.4,P
1512318135.9,286046989.9,P
1512318155.7,286046987.7,Y
1512318175.5,286046999.7,P
1512318195.4,286046998.2,N
1512318215.2,286046998.2,N
1512318235.0,286047000.2,N
1512318235.9,286047000.2,N
1512318255.8,286046999.8,N
1512318275.6,286047002.0,N
1512318295.4,286047000.6,N
1512318315.2,286047002.1,N
1512318335.1,286046998.8,N
1512318336.0,286046998.8,N
1512318355.8,286046998.6,N
1512318375.6,286047000.4,N
1512318395.5,286046998.4,N
1512318415.3,286046997.1,N
1512318435.1,286046997.5,N
1512318455.9,286046997.4,N
1512318475.7,286046996.8,N
1512318495.5,286046994.5,N
1512318515.4,286046989.8,Y
1512318535.2,286046993.3,P
1512318555.0,286046995.3,N
1512318555.9,286046995.3,N
1512318575.8,286046995.0,N
1512318595.6,286047000.9,N
1512318615.4,286046999.5,N
1512318635.3,286046997.3,N
1512318655.1,286046999.5,N
1512318656.0,286046999.5,N
1512318675.8,286046999.9,N
1512318695.7,286047002.3,N
1512318715.5,286046999.4,N
1512318735.3,286047002.7,N
1512318755.1,286047000.1,N
1512318775.9,286047000.5,N
1512318795.7,286047005.1,N
1512318815.5,286047008.7,N
1512318835.4,286047006.2,N
1512318855.2,286047003.0,N
1512318875.0,286047003.4,N
1512318875.9,286047003.4,N
1512318895.8,286047005.7,N
1512318915.6,286047003.9,N
1512318935.4,286047002.4,N
1512318955.3,286047000.6,N
1512318975.1,286047000.1,N
1512318976.0,286047000.1,N
1512318995.8,286046999.6,N
1512319015.7,286046994.0,N
1512319035.5,286046992.9,N
1512319055.3,286046990.2,N
1512319075.1,286046991.4,N
1512319095.9,286046989.9,N
1512319115.7,286046986.1,Y
1512319135.5,286046984.2,P
1512319155.4,286046986.0,N
1512319175.2,286046984.8,N
1512319195.0,286046980.9,N
1512319195.9,286046980.9,N
1512319215.8,286046977.4,Y
1512319235.6,286046990.8,P
1512319255.4,286046989.0,P
1512319275.3,286046986.7,P
1512319295.1,286046982.2,Y
1512319315.8,286046993.7,P
1512319335.7,286046997.2,N
1512319355.5,286046992.2,N
1512319375.3,286046994.2,N
1512319395.2,286046991.3,N
1512319415.9,286046987.8,Y
1512319435.7,286046992.3,P
1512319455.6,286046995.2,P
1512319475.4,286046995.2,P
1512319495.2,286046996.8,N
1512319515.1,286047002.8,N
1512319516.0,286047002.8,N
1512319535.8,286047004.4,N
1512319555.6,286047005.9,N
1512319575.5,286047003.5,N
1512319595.3,286047007.4,N
1512319615.1,286047010.8,N
1512319635.9,286047012.2,N
1512319655.7,286047008.3,N
1512319675.5,286047006.6,N
1512319695.3,286047006.2,N
1512319715.2,286047008.1,N
1512319735.0,286047012.4,N
1512319735.9,286047012.4,N
1512319755.7,286047015.4,N
1512319775.6,286047016.6,N
1512319795.4,286047017.8,N
1512319815.2,286047021.0,N
1512319835.1,286047023.4,N
1512319836.0,286047023.4,N
1512319855.8,286047022.5,N
1512319875.6,286047023.1,N
1512319895.5,286047021.9,N
1512319915.3,286047023.1,N
1512319935.1,286047020.9,N
1512319955.8,286047022.6,N
1512319975.7,286047023.5,N
1512319995.5,286047022.7,N
1512320015.3,286047022.8,N
1512320035.2,286047024.7,Y
1512320055.0,286047007.7,P
1512320055.9,286047007.7,N
1512320075.7,286047012.4,P
1512320095.6,286047009.9,Y
1512320115.4,286046995.4,P
1512320135.2,286046998.3,N
1512320155.1,286046999.9,N
1512320156.0,286046999.9,N
1512320175.8,286046998.2,N
1512320195.6,286046998.8,N
1512320215.5,286047000.7,N
1512320235.3,286046996.8,N
1512320255.1,286046999.2,N
1512320275.9,286047000.7,N
1512320295.7,286047001.1,N
1512320315.5,286046998.6,N
1512320335.4,286046999.3,N
1512320355.2,286047001.2,N
1512320375.0,286047002.4,N
1512320375.9,286047002.4,N
1512320395.7,286047002.0,N
